Back to catalog

STARLINK-31677

AliveCommunicationsVLEO
NORAD 59749·PAYLOAD·🇺🇸 United States

Launched May 13, 2024 from Cape Canaveral Space Force Station

Loading…

Next Passes (next 24 hours)

TLE

FreshSource: CelesTrak SupGP

Epoch: Sep 14, 2026, 13:51 UTC

1 59749C 24090V   26257.57756944  .00043578  00000+0  15800-2 0  2577
2 59749  43.0021 197.0236 0001811 275.6466 131.6429 15.27522245    13

Track STARLINK-31677 in real time with AllMySat

Download on the App Store